N1YZ Weather Reports


time (UTC)temp
C
wind
direction
speed
KPH
gust
KPH
rain 1hr
cm
rain 24hr
cm
rain mn
cm
humidity
%
barometer
mb
20260902191613 35 356 0.0 0.0 0.00 0.00 0.00 55 1036.7
20260902191108 35 182 3.2 4.8 0.00 0.00 0.00 53 1036.8
20260902190604 35 225 1.6 1.6 0.00 0.00 0.00 51 1036.9
20260902190059 36 351 1.6 3.2 0.00 0.00 0.00 53 1036.7
20260902185554 35 11 0.0 0.0 0.00 0.00 0.00 52 1036.8
20260902185050 35 32 0.0 0.0 0.00 0.00 0.00 51 1036.8
20260902184544 34 18 0.0 0.0 0.00 0.00 0.00 55 1037.0
20260902184039 35 27 0.0 1.6 0.00 0.00 0.00 54 1037.1
20260902183531 35 337 1.6 3.2 0.00 0.00 0.00 53 1037.1
20260902183027 34 13 0.0 0.0 0.00 0.00 0.00 55 1037.5
20260902182523 35 5 1.6 1.6 0.00 0.00 0.00 52 1037.5
20260902182019 35 19 0.0 0.0 0.00 0.00 0.00 53 1037.4
20260902181514 33 23 0.0 0.0 0.00 0.00 0.00 55 1037.5
20260902181008 33 26 1.6 3.2 0.00 0.00 0.00 57 1037.5
20260902180503 35 2 0.0 0.0 0.00 0.00 0.00 56 1037.4
20260902175959 35 22 0.0 1.6 0.00 0.00 0.00 56 1037.3
20260902175459 35 357 3.2 3.2 0.00 0.00 0.00 52 1037.5
20260902174954 35 13 0.0 0.0 0.00 0.00 0.00 55 1037.6
20260902174451 34 7 0.0 0.0 0.00 0.00 0.00 56 1037.6
20260902173946 33 24 0.0 0.0 0.00 0.00 0.00 56 1037.7
20260902173446 34 58 1.6 1.6 0.00 0.00 0.00 55 1037.7
20260902172941 34 354 0.0 1.6 0.00 0.00 0.00 54 1037.9
20260902172440 35 0 0.0 0.0 0.00 0.00 0.00 56 1038.1
20260902171935 34 1 0.0 0.0 0.00 0.00 0.00 54 1038.1
20260902171431 35 70 1.6 1.6 0.00 0.00 0.00 53 1038.0
20260902170927 35 180 3.2 3.2 0.00 0.00 0.00 54 1038.3
20260902170422 34 18 0.0 0.0 0.00 0.00 0.00 54 1038.3
20260902165917 34 331 0.0 0.0 0.00 0.00 0.00 54 1038.4
20260902165417 34 5 0.0 0.0 0.00 0.00 0.00 56 1038.6
20260902164912 33 27 0.0 0.0 0.00 0.00 0.00 56 1038.5
20260902164406 33 77 1.6 1.6 0.00 0.00 0.00 56 1038.7
20260902163906 33 13 0.0 0.0 0.00 0.00 0.00 60 1038.5
20260902163401 33 8 1.6 3.2 0.00 0.00 0.00 58 1038.6
20260902162859 33 0 0.0 0.0 0.00 0.00 0.00 57 1038.7
20260902162354 33 6 0.0 0.0 0.00 0.00 0.00 61 1038.6
20260902161854 33 329 0.0 1.6 0.00 0.00 0.00 57 1038.8
20260902161349 33 46 0.0 0.0 0.00 0.00 0.00 57 1038.8
20260902160846 32 168 1.6 1.6 0.00 0.00 0.00 60 1038.9
20260902160341 32 13 0.0 0.0 0.00 0.00 0.00 61 1039.0
20260902155839 32 359 0.0 0.0 0.00 0.00 0.00 61 1039.1
20260902155338 32 351 0.0 0.0 0.00 0.00 0.00 57 1039.2
20260902154833 33 25 0.0 0.0 0.00 0.00 0.00 58 1039.1
20260902154329 33 5 0.0 0.0 0.00 0.00 0.00 59 1039.3
20260902153827 32 16 0.0 0.0 0.00 0.00 0.00 59 1039.3
20260902153327 32 245 0.0 0.0 0.00 0.00 0.00 58 1039.2
20260902152823 32 17 0.0 0.0 0.00 0.00 0.00 61 1038.9
20260902152319 32 208 0.0 0.0 0.00 0.00 0.00 63 1039.1
20260902151814 32 24 0.0 0.0 0.00 0.00 0.00 66 1039.1
20260902151309 31 23 0.0 0.0 0.00 0.00 0.00 67 1039.1
20260902150803 31 34 0.0 0.0 0.00 0.00 0.00 67 1039.3
20260902150300 31 280 0.0 0.0 0.00 0.00 0.00 70 1039.0
20260902145759 31 305 0.0 0.0 0.00 0.00 0.00 70 1039.1
20260902145254 31 1 0.0 0.0 0.00 0.00 0.00 71 1039.2
20260902144750 31 334 0.0 0.0 0.00 0.00 0.00 70 1039.1
20260902144246 32 347 0.0 0.0 0.00 0.00 0.00 70 1039.0
20260902143740 32 14 0.0 0.0 0.00 0.00 0.00 69 1039.2
20260902143236 31 351 0.0 0.0 0.00 0.00 0.00 71 1038.8
20260902142731 30 357 0.0 0.0 0.00 0.00 0.00 72 1039.0
20260902142227 30 11 0.0 0.0 0.00 0.00 0.00 73 1039.0
20260902141721 30 341 0.0 0.0 0.00 0.00 0.00 78 1038.9
20260902141217 29 338 0.0 0.0 0.00 0.00 0.00 79 1039.1
20260902140706 28 359 0.0 0.0 0.00 0.00 0.00 81 1038.9
20260902140207 28 7 0.0 0.0 0.00 0.00 0.00 83 1039.0
20260902135706 28 355 0.0 0.0 0.00 0.00 0.00 83 1039.0
20260902135202 28 353 0.0 0.0 0.00 0.00 0.00 84 1038.9
20260902134656 27 4 0.0 0.0 0.00 0.00 0.00 83 1039.0
20260902134156 27 350 0.0 0.0 0.00 0.00 0.00 87 1039.2
20260902133652 26 329 0.0 0.0 0.00 0.00 0.00 88 1039.3
20260902133151 26 336 0.0 0.0 0.00 0.00 0.00 90 1039.3
20260902132647 26 335 0.0 0.0 0.00 0.00 0.00 91 1039.2
20260902132142 25 305 0.0 0.0 0.00 0.00 0.00 92 1039.1
20260902131638 25 337 0.0 0.0 0.00 0.00 0.00 92 1039.1
20260902131133 25 334 0.0 0.0 0.00 0.00 0.00 92 1039.2
20260902130629 25 328 0.0 0.0 0.00 0.00 0.00 93 1039.1
20260902130124 25 334 0.0 0.0 0.00 0.00 0.00 94 1039.0
20260902125620 25 325 0.0 0.0 0.00 0.00 0.00 94 1038.9
20260902125114 25 292 0.0 0.0 0.00 0.00 0.00 94 1039.0
20260902124612 24 310 0.0 0.0 0.00 0.00 0.00 95 1039.2
20260902124111 24 298 0.0 0.0 0.00 0.00 0.00 96 1038.9
20260902123607 24 280 0.0 0.0 0.00 0.00 0.00 96 1039.1
20260902123101 24 294 0.0 0.0 0.00 0.00 0.00 96 1039.0
20260902122556 23 343 0.0 0.0 0.00 0.00 0.00 96 1038.8
20260902122051 23 342 0.0 0.0 0.00 0.00 0.00 97 1038.8
20260902121546 23 328 0.0 0.0 0.00 0.00 0.00 97 1038.9
20260902121041 23 309 0.0 0.0 0.00 0.00 0.00 97 1038.7
20260902120537 23 326 0.0 0.0 0.00 0.00 0.00 97 1038.8
20260902120032 23 338 0.0 0.0 0.00 0.00 0.00 97 1038.8
20260902115527 23 338 0.0 0.0 0.00 0.00 0.00 97 1038.6
20260902115024 23 339 0.0 0.0 0.00 0.00 0.00 97 1038.7
20260902114519 23 339 0.0 0.0 0.00 0.00 0.00 97 1038.5
20260902114019 23 339 0.0 0.0 0.00 0.00 0.00 97 1038.6
20260902113514 23 339 0.0 0.0 0.00 0.00 0.00 97 1038.6
20260902113010 23 339 0.0 0.0 0.00 0.00 0.00 97 1038.6
20260902112505 23 340 0.0 0.0 0.00 0.00 0.00 97 1038.6
20260902112001 23 341 0.0 0.0 0.00 0.00 0.00 96 1038.5
20260902111457 23 340 0.0 0.0 0.00 0.00 0.00 96 1038.4
20260902110953 23 332 0.0 0.0 0.00 0.00 0.00 96 1038.2
20260902110448 23 347 0.0 0.0 0.00 0.00 0.00 96 1038.5
20260902105943 23 346 0.0 0.0 0.00 0.00 0.00 96 1038.3
20260902105433 23 346 0.0 0.0 0.00 0.00 0.00 96 1038.2
20260902104932 23 347 0.0 0.0 0.00 0.00 0.00 96 1038.1
20260902104429 23 350 0.0 0.0 0.00 0.00 0.00 96 1038.1
20260902103923 23 350 0.0 0.0 0.00 0.00 0.00 96 1038.0
20260902103418 23 351 0.0 0.0 0.00 0.00 0.00 96 1038.1
20260902102913 23 352 0.0 0.0 0.00 0.00 0.00 96 1038.1
20260902102411 23 352 0.0 0.0 0.00 0.00 0.00 95 1037.9
20260902101906 23 351 0.0 0.0 0.00 0.00 0.00 95 1037.9
20260902101400 23 351 0.0 0.0 0.00 0.00 0.00 95 1037.9
20260902100900 24 351 0.0 0.0 0.00 0.00 0.00 95 1037.9
20260902100354 23 351 0.0 0.0 0.00 0.00 0.00 95 1037.7
20260902095849 23 351 0.0 0.0 0.00 0.00 0.00 95 1038.0
20260902095349 23 352 0.0 0.0 0.00 0.00 0.00 95 1038.0
20260902094843 24 352 0.0 0.0 0.00 0.00 0.00 95 1037.9
20260902094340 24 350 0.0 0.0 0.00 0.00 0.00 94 1037.6
20260902093838 24 350 0.0 0.0 0.00 0.00 0.00 94 1037.7
20260902093334 24 352 0.0 0.0 0.00 0.00 0.00 94 1037.6
20260902092832 24 352 0.0 0.0 0.00 0.00 0.00 94 1037.6
20260902092329 24 352 0.0 0.0 0.00 0.00 0.00 94 1037.3
20260902091823 24 351 0.0 0.0 0.00 0.00 0.00 94 1037.5
20260902091319 24 351 0.0 0.0 0.00 0.00 0.00 94 1037.6
20260902090815 24 351 0.0 0.0 0.00 0.00 0.00 94 1037.5
20260902090314 24 352 0.0 0.0 0.00 0.00 0.00 94 1037.4
20260902085808 24 352 0.0 0.0 0.00 0.00 0.00 94 1037.3
20260902085306 24 352 0.0 0.0 0.00 0.00 0.00 94 1037.3
20260902084758 24 351 0.0 0.0 0.00 0.00 0.00 94 1037.3
20260902084255 24 351 0.0 0.0 0.00 0.00 0.00 94 1037.2
20260902083749 24 351 0.0 0.0 0.00 0.00 0.00 94 1037.3
20260902083244 24 351 0.0 0.0 0.00 0.00 0.00 94 1037.2
20260902082739 24 351 0.0 0.0 0.00 0.00 0.00 93 1037.1
20260902082236 24 351 0.0 0.0 0.00 0.00 0.00 93 1037.2
20260902081732 24 351 0.0 0.0 0.00 0.00 0.00 93 1037.2
20260902081227 24 351 0.0 0.0 0.00 0.00 0.00 93 1037.3
20260902080722 24 351 0.0 0.0 0.00 0.00 0.00 93 1037.0
20260902080219 24 352 0.0 0.0 0.00 0.00 0.00 93 1036.8
20260902075718 24 352 0.0 0.0 0.00 0.00 0.00 93 1037.0
20260902075215 24 352 0.0 0.0 0.00 0.00 0.00 92 1037.1
20260902074714 25 352 0.0 0.0 0.00 0.00 0.00 92 1037.2
20260902074210 25 352 0.0 0.0 0.00 0.00 0.00 92 1036.9
20260902073705 25 351 0.0 0.0 0.00 0.00 0.00 91 1037.0
20260902073201 25 351 0.0 0.0 0.00 0.00 0.00 91 1037.2
20260902072657 25 348 0.0 0.0 0.00 0.00 0.00 91 1037.2
20260902072153 25 4 0.0 0.0 0.00 0.00 0.00 91 1037.0
20260902071649 25 3 0.0 0.0 0.00 0.00 0.00 91 1036.9
20260902071144 25 358 0.0 0.0 0.00 0.00 0.00 91 1036.9
20260902070640 25 342 0.0 0.0 0.00 0.00 0.00 91 1037.2
20260902070139 25 265 0.0 0.0 0.00 0.00 0.00 91 1037.1
20260902065638 25 3 0.0 0.0 0.00 0.00 0.00 90 1037.1
20260902065134 25 3 0.0 0.0 0.00 0.00 0.00 90 1037.1
20260902064629 25 4 0.0 0.0 0.00 0.00 0.00 90 1037.2
20260902064125 25 4 0.0 0.0 0.00 0.00 0.00 90 1037.2
20260902063620 25 5 0.0 0.0 0.00 0.00 0.00 90 1037.0
20260902063115 25 6 0.0 0.0 0.00 0.00 0.00 89 1037.1
20260902062613 25 6 0.0 0.0 0.00 0.00 0.00 89 1037.1
20260902062108 25 5 0.0 0.0 0.00 0.00 0.00 88 1037.2
20260902061603 25 6 0.0 0.0 0.00 0.00 0.00 88 1037.1
20260902061059 25 6 0.0 0.0 0.00 0.00 0.00 87 1037.0
20260902060555 25 19 0.0 0.0 0.00 0.00 0.00 87 1037.0
20260902060051 25 347 0.0 0.0 0.00 0.00 0.00 87 1037.2
20260902055547 25 12 0.0 0.0 0.00 0.00 0.00 87 1037.2
20260902055042 25 100 0.0 0.0 0.00 0.00 0.00 88 1037.1
20260902054537 26 100 0.0 0.0 0.00 0.00 0.00 87 1037.4
20260902054033 26 280 0.0 0.0 0.00 0.00 0.00 86 1037.1
20260902053532 26 336 0.0 0.0 0.00 0.00 0.00 85 1037.3
20260902053027 26 348 0.0 0.0 0.00 0.00 0.00 84 1037.3
20260902052522 26 348 0.0 0.0 0.00 0.00 0.00 85 1037.3
20260902052018 26 349 0.0 0.0 0.00 0.00 0.00 86 1037.2
20260902051517 26 349 0.0 0.0 0.00 0.00 0.00 85 1037.2
20260902051016 26 349 0.0 0.0 0.00 0.00 0.00 85 1037.3
20260902050511 26 349 0.0 0.0 0.00 0.00 0.00 84 1037.3
20260902050008 26 348 0.0 0.0 0.00 0.00 0.00 84 1037.3
20260902045501 26 348 0.0 0.0 0.00 0.00 0.00 84 1037.3
20260902044958 26 357 0.0 0.0 0.00 0.00 0.00 85 1037.3
20260902044452 26 357 0.0 0.0 0.00 0.00 0.00 85 1037.2
20260902043948 26 358 0.0 0.0 0.00 0.00 0.00 84 1037.4
20260902043443 26 358 0.0 0.0 0.00 0.00 0.00 84 1037.3
20260902042938 26 358 0.0 0.0 0.00 0.00 0.00 84 1037.2
20260902042438 26 358 0.0 0.0 0.00 0.00 0.00 83 1037.3
20260902041933 26 358 0.0 0.0 0.00 0.00 0.00 82 1037.1
20260902041427 26 358 0.0 0.0 0.00 0.00 0.00 82 1037.6
20260902040926 26 358 0.0 0.0 0.00 0.00 0.00 81 1037.4
20260902040421 26 359 0.0 0.0 0.00 0.00 0.00 81 1037.5
20260902035920 27 359 0.0 0.0 0.00 0.00 0.00 81 1037.4
20260902035416 27 359 0.0 0.0 0.00 0.00 0.00 81 1037.3
20260902034914 27 359 0.0 0.0 0.00 0.00 0.00 80 1037.3
20260902034409 27 353 0.0 0.0 0.00 0.00 0.00 79 1037.5
20260902033909 27 345 0.0 0.0 0.00 0.00 0.00 80 1037.3
20260902033403 27 207 0.0 0.0 0.00 0.00 0.00 79 1037.4
20260902032902 27 328 0.0 0.0 0.00 0.00 0.00 79 1037.6
20260902032356 27 307 0.0 0.0 0.00 0.00 0.00 79 1037.5
20260902031856 27 357 0.0 0.0 0.00 0.00 0.00 76 1037.5
20260902031347 28 357 0.0 0.0 0.00 0.00 0.00 76 1037.6
20260902030837 28 358 0.0 0.0 0.00 0.00 0.00 76 1037.5
20260902030331 28 357 0.0 0.0 0.00 0.00 0.00 75 1037.4
20260902025830 28 7 0.0 0.0 0.00 0.00 0.00 74 1037.7
20260902025326 28 357 0.0 0.0 0.00 0.00 0.00 75 1037.6
20260902024820 28 357 0.0 0.0 0.00 0.00 0.00 75 1037.4
20260902024316 28 357 0.0 0.0 0.00 0.00 0.00 75 1037.8
20260902023811 28 358 0.0 0.0 0.00 0.00 0.00 74 1037.5
20260902023307 28 358 0.0 0.0 0.00 0.00 0.00 74 1037.3
20260902022806 28 358 0.0 0.0 0.00 0.00 0.00 74 1037.6
20260902022301 28 358 0.0 0.0 0.00 0.00 0.00 73 1037.3
20260902021757 28 358 0.0 0.0 0.00 0.00 0.00 73 1037.3
20260902021256 28 358 0.0 0.0 0.00 0.00 0.00 73 1037.3
20260902020753 28 358 0.0 0.0 0.00 0.00 0.00 72 1037.3
20260902020249 28 358 0.0 0.0 0.00 0.00 0.00 71 1037.2
20260902015743 28 358 0.0 0.0 0.00 0.00 0.00 71 1037.2
20260902015240 28 358 0.0 0.0 0.00 0.00 0.00 71 1037.0
20260902014735 29 358 0.0 0.0 0.00 0.00 0.00 70 1037.1
20260902014232 29 359 0.0 0.0 0.00 0.00 0.00 69 1036.9
20260902013729 29 359 0.0 0.0 0.00 0.00 0.00 68 1036.9
20260902013226 30 358 0.0 0.0 0.00 0.00 0.00 67 1036.6
20260902012721 30 358 0.0 0.0 0.00 0.00 0.00 67 1036.7
20260902012217 30 358 0.0 0.0 0.00 0.00 0.00 67 1036.7
20260902011712 30 359 0.0 0.0 0.00 0.00 0.00 66 1036.8
20260902011212 30 359 0.0 0.0 0.00 0.00 0.00 67 1036.7
20260902010706 30 359 0.0 0.0 0.00 0.00 0.00 66 1036.8
20260902010202 30 359 0.0 0.0 0.00 0.00 0.00 65 1036.6
20260902005700 30 359 0.0 0.0 0.00 0.00 0.00 64 1036.5
20260902005156 30 359 0.0 0.0 0.00 0.00 0.00 64 1036.4
20260902004656 30 359 0.0 0.0 0.00 0.00 0.00 63 1036.5
20260902004150 30 359 0.0 0.0 0.00 0.00 0.00 63 1036.3
20260902003646 30 359 0.0 0.0 0.00 0.00 0.00 62 1036.1
20260902003142 31 0 0.0 0.0 0.00 0.00 0.00 62 1036.2
20260902002636 31 1 0.0 0.0 0.00 0.00 0.00 61 1036.3
20260902002131 31 354 0.0 0.0 0.00 0.00 0.00 62 1036.2
20260902001626 31 6 0.0 0.0 0.00 0.00 0.00 61 1036.3
20260902001120 31 9 0.0 0.0 0.00 0.00 0.00 61 1036.2
20260902000616 31 336 0.0 0.0 0.00 0.00 0.00 61 1036.1
20260902000111 31 353 0.0 0.0 0.00 0.00 0.00 60 1036.3
20260901235605 32 4 0.0 0.0 0.00 0.00 0.00 59 1036.5
20260901235101 32 299 0.0 0.0 0.00 0.00 0.00 59 1036.5
20260901234559 32 355 0.0 0.0 0.00 0.00 0.00 58 1036.5
20260901234054 32 356 0.0 0.0 0.00 0.00 0.00 58 1036.5
20260901233549 32 9 0.0 0.0 0.00 0.00 0.00 58 1036.6
20260901233045 32 351 0.0 0.0 0.00 0.00 0.00 57 1036.5
20260901232540 32 352 0.0 0.0 0.00 0.00 0.00 57 1036.6
20260901232035 32 2 0.0 0.0 0.00 0.00 0.00 57 1036.7
20260901231531 32 10 0.0 0.0 0.00 0.00 0.00 57 1036.4
20260901231027 32 16 0.0 0.0 0.00 0.00 0.00 57 1036.5
20260901230522 32 14 0.0 0.0 0.00 0.00 0.00 57 1036.4
20260901230017 32 7 0.0 0.0 0.00 0.00 0.00 56 1036.3
20260901225512 32 11 0.0 0.0 0.00 0.00 0.00 56 1036.5
20260901225011 32 31 0.0 0.0 0.00 0.00 0.00 56 1036.6
20260901223337 33 51 1.6 1.6 0.00 0.00 0.00 55 1036.3
20260901222832 33 51 1.6 1.6 0.00 0.00 0.00 55 1036.3
20260901222329 33 0 0.0 1.6 0.00 0.00 0.00 56 1036.3
20260901221824 33 9 0.0 0.0 0.00 0.00 0.00 56 1036.2
20260901221320 33 8 0.0 0.0 0.00 0.00 0.00 56 1036.3
20260901220819 33 173 1.6 1.6 0.00 0.00 0.00 55 1036.2
20260901220318 33 21 0.0 0.0 0.00 0.00 0.00 55 1036.4
20260901215817 32 18 0.0 0.0 0.00 0.00 0.00 57 1036.2
20260901215312 33 355 1.6 1.6 0.00 0.00 0.00 57 1036.3
20260901214810 32 83 0.0 1.6 0.00 0.00 0.00 55 1036.2
20260901214309 33 2 0.0 0.0 0.00 0.00 0.00 55 1036.6
20260901213804 33 354 0.0 0.0 0.00 0.00 0.00 55 1036.2
20260901213304 32 27 0.0 1.6 0.00 0.00 0.00 57 1036.4
20260901212759 33 19 0.0 0.0 0.00 0.00 0.00 54 1036.4
20260901212254 33 18 0.0 0.0 0.00 0.00 0.00 56 1036.4
20260901211749 33 0 0.0 0.0 0.00 0.00 0.00 54 1036.4
20260901211246 33 250 1.6 1.6 0.00 0.00 0.00 52 1036.5
20260901210741 33 43 1.6 1.6 0.00 0.00 0.00 56 1036.4
20260901210237 33 341 1.6 3.2 0.00 0.00 0.00 54 1036.5
20260901205733 33 11 4.8 4.8 0.00 0.00 0.00 53 1036.6
20260901205232 34 198 0.0 0.0 0.00 0.00 0.00 53 1036.6
20260901204728 33 182 3.2 3.2 0.00 0.00 0.00 52 1036.6
20260901204224 33 195 1.6 3.2 0.00 0.00 0.00 52 1036.6
20260901203718 33 19 0.0 0.0 0.00 0.00 0.00 55 1036.6
20260901203213 34 184 3.2 3.2 0.00 0.00 0.00 53 1036.6
20260901202712 34 64 0.0 1.6 0.00 0.00 0.00 53 1036.7
20260901202208 33 38 0.0 0.0 0.00 0.00 0.00 51 1036.9
20260901201704 34 59 0.0 0.0 0.00 0.00 0.00 51 1037.0
20260901201203 34 150 0.0 1.6 0.00 0.00 0.00 54 1037.2
20260901200703 33 29 0.0 0.0 0.00 0.00 0.00 53 1037.3
20260901200153 34 23 0.0 0.0 0.00 0.00 0.00 54 1037.2
20260901195650 33 6 0.0 0.0 0.00 0.00 0.00 53 1037.2
20260901195144 33 254 1.6 1.6 0.00 0.00 0.00 54 1037.5
20260901194639 33 13 0.0 0.0 0.00 0.00 0.00 53 1037.3
20260901194129 33 346 1.6 3.2 0.00 0.00 0.00 58 1037.3
20260901193625 33 20 0.0 1.6 0.00 0.00 0.00 54 1037.3
20260901193119 33 36 0.0 1.6 0.00 0.00 0.00 51 1037.3
20260901192614 34 28 0.0 0.0 0.00 0.00 0.00 53 1037.4
20260901192109 33 9 0.0 0.0 0.00 0.00 0.00 53 1037.7